Volver al catálogo

FENGYUN 1C DEB

ActivoPO
NORAD 31823·DEBRIS·🇨🇳 China

Lanzado May 10, 1999 desde Taiyuan Satellite Launch Center

Loading…

Próximos Pases (próximas 24 horas)

TLE

ActualizadoSource: Space-Track

Época: Sep 14, 2026, 04:15 UTC

1 31823U 99025CHM 26257.17737860  .00005110  00000-0  82935-3 0  9990
2 31823  99.5182  33.0649 0036745 100.0210 260.5141 14.71275447  7599

Sigue FENGYUN 1C DEB en tiempo real con AllMySat

Download on the App Store